Date String (YYYY-MM-DD hh:mm:ss) UTC,Instrument flags,Ambient pressure (hPa),Sample flow (lpm),Bypass flow (lpm),Sample temperature (°C),Ambient temperature (°C),ASC tube jacket temperature (°C),LED temperature (°C),Box temperature (°C),Sample RH (%),Span deviation,Mass concentration (μg/m³),Mass concentration (μg/m³),Mass concentration (μg/m³)
DateTimeUTC,F1_M11,P_M11,Q1_M11,Q2_M11,T1_M11,T2_M11,T3_M11,T4_M11,T5_M11,U1_M11,ZSPAN_M11,X0_M11,X2_M11,X1_M11
2022-07-24 07:00:00,,0830.6,4.99,0.00,32.8,28.1,00.0,40.6,32.6,35.1,0000.0,0010.19,0006.29,0005.30
2022-07-24 07:01:00,,0830.6,5.00,0.00,32.9,28.2,00.0,40.6,32.8,34.8,0000.0,0010.38,0006.36,0005.32
2022-07-24 07:02:00,,0830.6,4.99,0.00,33.0,28.3,00.0,40.6,32.8,34.6,0000.0,0010.32,0006.35,0005.34
2022-07-24 07:03:00,,0830.6,5.01,0.00,33.0,28.4,00.0,40.6,32.7,34.6,0000.0,0010.71,0006.35,0005.35
2022-07-24 07:04:00,,0830.6,4.99,0.00,33.0,28.5,00.0,40.7,32.7,34.7,0000.0,0011.31,0006.33,0005.34
2022-07-24 07:05:00,,0830.6,5.01,0.00,32.9,28.6,00.0,40.7,32.7,34.9,0000.0,0011.95,0006.35,0005.35
2022-07-24 07:06:00,,0830.6,5.00,0.00,32.9,28.7,00.0,40.7,32.7,35.0,0000.0,0012.18,0006.36,0005.37
2022-07-24 07:07:00,,0830.6,5.01,0.00,32.9,28.8,00.0,40.7,32.8,35.1,0000.0,0012.28,0006.40,0005.40
2022-07-24 07:08:00,,0830.6,4.99,0.00,33.1,28.8,00.0,40.8,32.9,34.7,0000.0,0012.28,0006.42,0005.41
2022-07-24 07:09:00,,0830.6,4.99,0.00,33.1,28.9,00.0,40.8,32.9,34.5,0000.0,0012.28,0006.40,0005.38
2022-07-24 07:10:00,,0830.6,5.01,0.00,33.1,28.9,00.0,40.8,32.9,34.6,0000.0,0012.28,0006.40,0005.38
2022-07-24 07:11:00,,0830.5,5.00,0.00,33.1,29.0,00.0,40.8,32.9,34.6,0000.0,0012.29,0006.41,0005.40
2022-07-24 07:12:00,,0830.6,4.99,0.00,33.0,29.0,00.0,40.9,32.9,34.7,0000.0,0012.33,0006.43,0005.40
2022-07-24 07:13:00,,0830.5,5.01,0.00,33.0,29.1,00.0,40.9,32.9,34.8,0000.0,0012.39,0006.48,0005.42
2022-07-24 07:14:00,,0830.6,5.00,0.00,32.9,29.1,00.0,40.9,32.9,34.9,0000.0,0012.36,0006.54,0005.44
2022-07-24 07:15:00,,0830.6,4.99,0.00,32.9,29.1,00.0,40.9,32.9,34.9,0000.0,0011.94,0006.55,0005.44
2022-07-24 07:16:00,,0830.6,5.01,0.00,32.8,29.2,00.0,40.9,32.9,34.9,0000.0,0011.42,0006.49,0005.42
2022-07-24 07:17:00,,0830.6,5.00,0.00,32.7,29.2,00.0,40.9,32.9,35.0,0000.0,0011.14,0006.47,0005.40
2022-07-24 07:18:00,,0830.6,5.00,0.00,32.8,29.2,00.0,40.9,33.0,35.0,0000.0,0011.03,0006.43,0005.37
2022-07-24 07:19:00,,0830.6,5.00,0.00,33.0,29.3,00.0,40.9,33.1,34.6,0000.0,0011.13,0006.46,0005.35
2022-07-24 07:20:00,,0830.6,5.00,0.00,33.0,29.3,00.0,40.9,33.1,34.4,0000.0,0011.23,0006.47,0005.35
2022-07-24 07:21:00,,0830.7,5.00,0.00,33.0,29.2,00.0,40.9,33.1,34.4,0000.0,0011.35,0006.47,0005.35
2022-07-24 07:22:00,,0830.6,5.00,0.00,33.0,28.5,00.0,40.8,33.0,34.3,0000.0,0011.46,0006.48,0005.32
2022-07-24 07:23:00,,0830.6,5.01,0.00,33.0,28.0,00.0,40.8,32.9,34.4,0000.0,0011.77,0006.44,0005.31
2022-07-24 07:24:00,,0830.6,5.01,0.00,32.8,27.9,00.0,40.8,32.7,34.6,0000.0,0011.56,0006.32,0005.27
2022-07-24 07:25:00,,0830.6,5.00,0.00,32.6,28.0,00.0,40.8,32.6,35.0,0000.0,0011.39,0006.25,0005.24
2022-07-24 07:26:00,,0830.6,4.98,0.00,32.6,28.1,00.0,40.8,32.7,35.1,0000.0,0011.31,0006.25,0005.24
2022-07-24 07:27:00,,0830.7,5.02,0.00,32.8,28.2,00.0,40.7,32.8,34.8,0000.0,0011.15,0006.24,0005.22
2022-07-24 07:28:00,,0830.7,4.99,0.00,32.9,28.3,00.0,40.7,32.8,34.4,0000.0,0011.05,0006.18,0005.18
2022-07-24 07:29:00,,0830.6,5.00,0.00,32.9,28.4,00.0,40.7,32.8,34.4,0000.0,0011.01,0006.17,0005.17
2022-07-24 07:30:00,,0830.6,5.01,0.00,32.9,28.5,00.0,40.7,32.8,34.5,0000.0,0010.92,0006.15,0005.19
2022-07-24 07:31:00,,0830.6,5.00,0.00,32.8,28.6,00.0,40.7,32.8,34.6,0000.0,0010.85,0006.15,0005.21
2022-07-24 07:32:00,,0830.6,4.99,0.00,32.8,28.7,00.0,40.7,32.8,34.8,0000.0,0010.73,0006.15,0005.23
2022-07-24 07:33:00,,0830.6,5.02,0.00,32.7,28.8,00.0,40.7,32.8,35.0,0000.0,0010.66,0006.14,0005.25
2022-07-24 07:34:00,,0830.6,5.01,0.00,32.7,28.9,00.0,40.7,32.8,35.0,0000.0,0010.32,0006.15,0005.29
2022-07-24 07:35:00,,0830.5,4.99,0.00,32.8,29.0,00.0,40.7,32.9,34.8,0000.0,0010.75,0006.23,0005.32
2022-07-24 07:36:00,,0830.5,5.01,0.00,32.8,29.0,00.0,40.7,33.0,34.8,0000.0,0010.84,0006.31,0005.37
2022-07-24 07:37:00,,0830.5,4.99,0.00,32.8,29.0,00.0,40.7,32.9,34.8,0000.0,0010.80,0006.38,0005.42
2022-07-24 07:38:00,,0830.5,5.00,0.00,32.7,29.1,00.0,40.8,32.9,34.9,0000.0,0010.95,0006.48,0005.50
2022-07-24 07:39:00,,0830.5,5.00,0.00,32.7,29.1,00.0,40.8,32.9,34.9,0000.0,0011.03,0006.56,0005.57
2022-07-24 07:40:00,,0830.5,5.01,0.00,32.7,29.2,00.0,40.8,32.9,35.0,0000.0,0011.06,0006.62,0005.63
2022-07-24 07:41:00,,0830.4,5.00,0.00,32.7,29.2,00.0,40.8,33.0,35.0,0000.0,0011.08,0006.65,0005.67
2022-07-24 07:42:00,,0830.4,4.99,0.00,32.8,29.2,00.0,40.8,33.1,34.5,0000.0,0011.01,0006.60,0005.64
2022-07-24 07:43:00,,0830.4,5.01,0.00,32.9,29.3,00.0,40.8,33.1,34.4,0000.0,0010.97,0006.58,0005.63
2022-07-24 07:44:00,,0830.4,5.00,0.00,32.8,29.3,00.0,40.8,33.0,34.2,0000.0,0010.97,0006.57,0005.60
2022-07-24 07:45:00,,0830.4,5.00,0.00,32.8,29.3,00.0,40.8,33.0,34.3,0000.0,0010.91,0006.56,0005.57
2022-07-24 07:46:00,,0830.4,5.01,0.00,32.8,28.8,00.0,40.8,33.0,34.2,0000.0,0010.48,0006.51,0005.55
2022-07-24 07:47:00,,0830.4,4.99,0.00,32.8,28.2,00.0,40.7,32.9,34.2,0000.0,0010.25,0006.39,0005.49
2022-07-24 07:48:00,,0830.4,4.99,0.00,32.7,27.9,00.0,40.7,32.8,34.4,0000.0,0010.15,0006.32,0005.44
2022-07-24 07:49:00,,0830.4,5.00,0.00,32.5,27.9,00.0,40.7,32.6,34.8,0000.0,0010.03,0006.24,0005.39
2022-07-24 07:50:00,,0830.3,5.01,0.00,32.3,28.0,00.0,40.7,32.6,35.1,0000.0,0010.05,0006.21,0005.35
2022-07-24 07:51:00,,0830.3,5.00,0.00,32.4,28.1,00.0,40.6,32.7,35.0,0000.0,0010.02,0006.16,0005.29
2022-07-24 07:52:00,,0830.4,5.01,0.00,32.6,28.2,00.0,40.6,32.8,34.7,0000.0,0010.14,0006.13,0005.24
2022-07-24 07:53:00,,0830.3,4.99,0.00,32.6,28.3,00.0,40.6,32.8,34.6,0000.0,0010.05,0006.09,0005.22
2022-07-24 07:54:00,,0830.3,5.01,0.00,32.6,28.5,00.0,40.6,32.7,34.6,0000.0,0010.21,0006.10,0005.22
2022-07-24 07:55:00,,0830.3,4.98,0.00,32.5,28.6,00.0,40.6,32.7,34.6,0000.0,0010.39,0006.08,0005.22
2022-07-24 07:56:00,,0830.3,5.01,0.00,32.5,28.7,00.0,40.6,32.7,34.8,0000.0,0010.26,0006.06,0005.23
2022-07-24 07:57:00,,0830.2,4.99,0.00,32.4,28.7,00.0,40.6,32.7,34.8,0000.0,0010.24,0006.04,0005.21
2022-07-24 07:58:00,,0830.3,4.99,0.00,32.4,28.8,00.0,40.6,32.7,34.9,0000.0,0010.35,0006.09,0005.22
2022-07-24 07:59:00,,0830.3,5.01,0.00,32.3,28.9,00.0,40.6,32.7,34.9,0000.0,0010.25,0006.06,0005.22
